| time (UTC) | temp F | wind direction | speed knots | gust knots | rain 1hr in | rain 24hr in | rain mn in | humidity % | barometer mb |
| 20260904133054 | 79 | 90 | 0.0 | 0.0 | 0.00 | 0.04 | 0.01 | 99 | 1014.6 |
| 20260904131545 | 79 | 90 | 0.0 | 0.0 | 0.00 | 0.04 | 0.01 | 99 | 1014.3 |
| 20260904130044 | 79 | 90 | 0.0 | 0.0 | 0.00 | 0.04 | 0.01 | 99 | 1014.2 |
| 20260904124548 | 78 | 90 | 0.0 | 0.0 | 0.00 | 0.04 | 0.01 | 99 | 1014.2 |
| 20260904123104 | 78 | 90 | 0.0 | 0.0 | 0.00 | 0.04 | 0.01 | 99 | 1014.1 |
| 20260904121542 | 78 | 90 | 0.0 | 0.0 | 0.01 | 0.04 | 0.01 | 99 | 1014.0 |
| 20260904120040 | 78 | 90 | 0.0 | 1.7 | 0.01 | 0.04 | 0.01 | 98 | 1013.7 |
| 20260904114540 | 78 | 57 | 0.0 | 0.0 | 0.01 | 0.04 | 0.01 | 98 | 1013.5 |
| 20260904113049 | 79 | 57 | 0.0 | 0.0 | 0.01 | 0.04 | 0.01 | 98 | 1013.6 |
| 20260904111538 | 79 | 57 | 0.0 | 0.0 | 0.00 | 0.03 | 0.00 | 98 | 1013.6 |
| 20260904110042 | 79 | 57 | 0.0 | 0.0 | 0.00 | 0.03 | 0.00 | 98 | 1013.6 |
| 20260904104537 | 79 | 57 | 0.0 | 0.0 | 0.00 | 0.03 | 0.00 | 98 | 1013.4 |
| 20260904103037 | 79 | 57 | 0.0 | 0.0 | 0.00 | 0.03 | 0.00 | 98 | 1013.3 |
| 20260904101536 | 79 | 57 | 0.0 | 0.0 | 0.00 | 0.03 | 0.00 | 98 | 1013.2 |
| 20260904100041 | 79 | 57 | 0.0 | 0.0 | 0.00 | 0.03 | 0.00 | 98 | 1013.3 |
| 20260904094532 | 79 | 57 | 0.0 | 0.0 | 0.00 | 0.03 | 0.00 | 98 | 1013.3 |
| 20260904093041 | 79 | 57 | 0.0 | 0.0 | 0.00 | 0.03 | 0.00 | 98 | 1013.2 |
| 20260904091530 | 79 | 40 | 0.0 | 3.5 | 0.00 | 0.03 | 0.00 | 98 | 1013.1 |
| 20260904090030 | 79 | 65 | 0.0 | 0.0 | 0.00 | 0.03 | 0.00 | 98 | 1013.1 |
| 20260904084529 | 79 | 84 | 0.0 | 0.0 | 0.00 | 0.03 | 0.00 | 98 | 1013.1 |
| 20260904083027 | 79 | 84 | 0.0 | 0.0 | 0.00 | 0.03 | 0.00 | 98 | 1013.2 |
| 20260904081526 | 79 | 84 | 0.0 | 0.0 | 0.00 | 0.03 | 0.00 | 98 | 1013.2 |
| 20260904080025 | 79 | 84 | 0.0 | 0.0 | 0.00 | 0.03 | 0.00 | 98 | 1013.4 |
| 20260904074524 | 79 | 84 | 0.0 | 0.0 | 0.00 | 0.03 | 0.00 | 98 | 1013.5 |
| 20260904073024 | 78 | 84 | 0.0 | 0.0 | 0.00 | 0.03 | 0.00 | 98 | 1013.5 |
| 20260904071523 | 78 | 101 | 0.0 | 0.0 | 0.00 | 0.03 | 0.00 | 98 | 1013.5 |
| 20260904070037 | 79 | 130 | 0.0 | 0.0 | 0.00 | 0.03 | 0.00 | 98 | 1013.6 |
| 20260904064522 | 79 | 130 | 0.0 | 0.0 | 0.00 | 0.03 | 0.00 | 98 | 1013.7 |
| 20260904063022 | 79 | 130 | 0.0 | 0.0 | 0.00 | 0.03 | 0.00 | 98 | 1013.7 |
| 20260904061520 | 78 | 130 | 0.0 | 2.6 | 0.00 | 0.03 | 0.00 | 98 | 1013.8 |
| 20260904060022 | 78 | 130 | 0.9 | 3.5 | 0.00 | 0.03 | 0.00 | 98 | 1013.5 |
| 20260904054529 | 78 | 119 | 0.0 | 0.0 | 0.00 | 0.03 | 0.00 | 98 | 1013.6 |
| 20260904053018 | 78 | 110 | 0.0 | 0.0 | 0.00 | 0.03 | 0.00 | 97 | 1013.4 |
| 20260904051516 | 78 | 110 | 0.0 | 0.0 | 0.00 | 0.03 | 0.00 | 97 | 1013.3 |
| 20260904050017 | 78 | 129 | 0.0 | 0.0 | 0.00 | 0.03 | 0.00 | 97 | 1013.4 |
| 20260904044524 | 79 | 139 | 0.0 | 0.0 | 0.00 | 0.03 | 0.03 | 97 | 1013.5 |
| 20260904043016 | 79 | 148 | 0.0 | 3.5 | 0.00 | 0.03 | 0.03 | 96 | 1013.5 |
| 20260904041512 | 79 | 132 | 0.9 | 4.3 | 0.00 | 0.03 | 0.03 | 96 | 1013.6 |
| 20260904040013 | 79 | 116 | 1.7 | 3.5 | 0.00 | 0.03 | 0.03 | 96 | 1013.6 |
| 20260904034527 | 79 | 126 | 2.6 | 6.1 | 0.00 | 0.03 | 0.03 | 96 | 1013.6 |
| 20260904033012 | 78 | 134 | 3.5 | 6.1 | 0.00 | 0.03 | 0.03 | 96 | 1013.4 |
| 20260904031514 | 78 | 111 | 2.6 | 5.2 | 0.00 | 0.03 | 0.03 | 96 | 1013.5 |
| 20260904030011 | 78 | 126 | 3.5 | 7.0 | 0.00 | 0.03 | 0.03 | 96 | 1013.3 |
| 20260904024511 | 79 | 117 | 4.3 | 7.0 | 0.00 | 0.03 | 0.03 | 95 | 1013.2 |
| 20260904023010 | 79 | 109 | 3.5 | 7.0 | 0.00 | 0.03 | 0.03 | 95 | 1013.4 |
| 20260904021509 | 79 | 113 | 4.3 | 7.8 | 0.00 | 0.03 | 0.03 | 95 | 1013.2 |
| 20260904020009 | 79 | 117 | 5.2 | 7.0 | 0.00 | 0.03 | 0.03 | 95 | 1013.0 |
| 20260904014509 | 79 | 112 | 2.6 | 7.0 | 0.00 | 0.03 | 0.03 | 95 | 1013.0 |
| 20260904013009 | 79 | 101 | 3.5 | 6.1 | 0.00 | 0.03 | 0.03 | 95 | 1012.8 |
| 20260904011521 | 79 | 107 | 4.3 | 7.0 | 0.00 | 0.03 | 0.03 | 94 | 1012.6 |
| 20260904010007 | 79 | 120 | 3.5 | 7.0 | 0.00 | 0.03 | 0.03 | 94 | 1012.5 |
| 20260904004506 | 79 | 108 | 3.5 | 7.8 | 0.00 | 0.03 | 0.03 | 93 | 1012.4 |
| 20260904003006 | 79 | 101 | 5.2 | 8.7 | 0.00 | 0.03 | 0.03 | 92 | 1012.4 |
| 20260904001505 | 79 | 91 | 5.2 | 9.6 | 0.00 | 0.03 | 0.03 | 92 | 1012.2 |
| 20260904000007 | 79 | 69 | 4.3 | 9.6 | 0.00 | 0.03 | 0.03 | 91 | 1012.3 |
| 20260903234505 | 80 | 104 | 7.8 | 10.4 | 0.00 | 0.03 | 0.03 | 90 | 1012.4 |
| 20260903233015 | 79 | 94 | 6.1 | 11.3 | 0.00 | 0.03 | 0.03 | 91 | 1012.6 |
| 20260903231504 | 79 | 80 | 7.0 | 9.6 | 0.00 | 0.03 | 0.03 | 90 | 1012.9 |
| 20260903230003 | 79 | 72 | 7.8 | 12.2 | 0.00 | 0.03 | 0.03 | 90 | 1012.8 |
| 20260903224504 | 80 | 99 | 10.4 | 15.6 | 0.00 | 0.03 | 0.03 | 89 | 1012.6 |
| 20260903223003 | 80 | 88 | 4.3 | 10.4 | 0.00 | 0.03 | 0.03 | 90 | 1012.7 |
| 20260903221502 | 80 | 78 | 6.1 | 10.4 | 0.00 | 0.03 | 0.03 | 90 | 1012.3 |
| 20260903220122 | 80 | 96 | 6.1 | 9.6 | 0.00 | 0.03 | 0.03 | 90 | 1012.3 |
| 20260903214600 | 79 | 103 | 6.1 | 8.7 | 0.00 | 0.03 | 0.03 | 91 | 1012.4 |
| 20260903213103 | 79 | 91 | 4.3 | 7.8 | 0.00 | 0.03 | 0.03 | 92 | 1012.7 |
| 20260903211600 | 79 | 78 | 3.5 | 8.7 | 0.00 | 0.03 | 0.03 | 93 | 1012.8 |
| 20260903210106 | 78 | 86 | 4.3 | 11.3 | 0.00 | 0.03 | 0.03 | 94 | 1012.9 |
| 20260903204556 | 77 | 135 | 7.8 | 11.3 | 0.00 | 0.03 | 0.03 | 93 | 1013.6 |
| 20260903203127 | 77 | 91 | 7.8 | 20.0 | 0.01 | 0.03 | 0.03 | 93 | 1013.6 |
| 20260903201553 | 77 | 109 | 14.8 | 21.7 | 0.01 | 0.03 | 0.03 | 93 | 1013.5 |
| 20260903200049 | 78 | 99 | 12.2 | 17.4 | 0.03 | 0.03 | 0.03 | 89 | 1013.9 |
| 20260903194555 | 78 | 97 | 8.7 | 15.6 | 0.03 | 0.03 | 0.03 | 90 | 1013.3 |
| 20260903193046 | 80 | 99 | 12.2 | 18.2 | 0.02 | 0.02 | 0.02 | 86 | 1013.4 |
| 20260903191543 | 84 | 123 | 11.3 | 16.5 | 0.02 | 0.02 | 0.02 | 77 | 1013.1 |
| 20260903190042 | 84 | 128 | 6.1 | 10.4 | 0.00 | 0.00 | 0.00 | 74 | 1013.1 |
| 20260903184541 | 91 | 174 | 5.2 | 9.6 | 0.00 | 0.00 | 0.00 | 66 | 1013.1 |
| 20260903183043 | 92 | 153 | 1.7 | 9.6 | 0.00 | 0.00 | 0.00 | 67 | 1013.2 |
| 20260903181535 | 91 | 136 | 2.6 | 6.1 | 0.00 | 0.00 | 0.00 | 68 | 1013.5 |
| 20260903180030 | 91 | 146 | 5.2 | 10.4 | 0.00 | 0.00 | 0.00 | 70 | 1013.7 |
| 20260903174529 | 90 | 175 | 4.3 | 7.8 | 0.00 | 0.00 | 0.00 | 74 | 1013.8 |
| 20260903173030 | 90 | 201 | 3.5 | 9.6 | 0.00 | 0.00 | 0.00 | 72 | 1013.9 |
| 20260903171525 | 89 | 244 | 3.5 | 7.8 | 0.00 | 0.00 | 0.00 | 76 | 1014.3 |
| 20260903170026 | 89 | 169 | 5.2 | 8.7 | 0.00 | 0.00 | 0.00 | 76 | 1014.6 |
| 20260903164524 | 89 | 198 | 7.0 | 13.0 | 0.00 | 0.00 | 0.00 | 75 | 1014.8 |
| 20260903163022 | 89 | 202 | 8.7 | 13.0 | 0.00 | 0.00 | 0.00 | 76 | 1014.7 |
| 20260903161520 | 88 | 173 | 7.8 | 12.2 | 0.00 | 0.00 | 0.00 | 78 | 1014.6 |
| 20260903160029 | 87 | 214 | 7.0 | 12.2 | 0.00 | 0.00 | 0.00 | 81 | 1014.6 |
| 20260903154517 | 87 | 250 | 9.6 | 15.6 | 0.00 | 0.00 | 0.00 | 82 | 1014.6 |
| 20260903153012 | 86 | 225 | 8.7 | 13.9 | 0.00 | 0.00 | 0.00 | 85 | 1014.6 |
| 20260903151509 | 85 | 202 | 9.6 | 14.8 | 0.00 | 0.00 | 0.00 | 86 | 1014.7 |
| 20260903150012 | 85 | 227 | 9.6 | 15.6 | 0.00 | 0.00 | 0.00 | 86 | 1014.7 |
| 20260903144518 | 84 | 218 | 8.7 | 16.5 | 0.00 | 0.00 | 0.00 | 89 | 1014.6 |
| 20260903143003 | 83 | 182 | 7.0 | 15.6 | 0.00 | 0.00 | 0.00 | 91 | 1014.8 |
| 20260903141601 | 83 | 196 | 6.1 | 12.2 | 0.00 | 0.00 | 0.00 | 92 | 1014.9 |
| 20260903140059 | 82 | 178 | 3.5 | 7.8 | 0.00 | 0.00 | 0.00 | 94 | 1014.9 |
| 20260903134559 | 81 | 173 | 1.7 | 4.3 | 0.00 | 0.00 | 0.00 | 95 | 1014.8 |